Regional Weather Roundup
Issued by NWS Boston, MA

Home | Current Version | Previous Version | Text Only | Print | Product List | Glossary On
Versions: 1 2 3 4 5 6 7 8 9 10 11 12 13 14 15 16 17 18 19 20 21 22 23 24 25 26 27 28 29 30 31 32 33 34 35 36 37 38 39 40 41 42 43 44 45 46 47 48 49 50
000
ASUS41 KBOX 161710
RWRBOX

REGIONAL WEATHER ROUNDUP
NATIONAL WEATHER SERVICE TAUNTON MA
100 PM EDT TUE SEP 16 2014

NOTE:  "FAIR" INDICATES FEW OR NO CLOUDS BELOW 12,000 FEET WITH NO
SIGNIFICANT WEATHER AND/OR OBSTRUCTIONS TO VISIBILITY.  THE FOLLOWING
OBSERVATION LOCATIONS DO NOT REPORT PRESENT WEATHER...PROVINCETOWN...
SMITHFIELD...BLOCK ISLAND...KEENE...AND OXFORD.

MAZALL-161800-
EASTERN MASSACHUSETTS

CITY           SKY/WX    TMP DP  RH WIND       PRES   REMARKS
BOSTON         PTSUNNY   64  53  67 NW6       29.98
BEVERLY        CLOUDY    59  53  80 VRB3      29.99F
LAWRENCE       CLOUDY    56  53  90 CALM      30.01F
BEDFORD        CLOUDY    56  53  90 NW3       29.98F
BLUE HILL        N/A     64  49  57 SW8       29.97F
NORWOOD        CLOUDY    67  51  56 W9        29.97F
MARSHFIELD     NOT AVBL
PLYMOUTH       CLOUDY    66  50  56 SW7       29.99S
TAUNTON        CLOUDY    69  50  50 W6        29.98F
NEW BEDFORD    CLOUDY    67  53  61 S9        29.98F
$$

MAZALL-161800-
CAPE COD AND THE ISLANDS

CITY           SKY/WX    TMP DP  RH WIND       PRES   REMARKS
FALMOUTH       CLOUDY    70  46  43 W8        29.99S
HYANNIS        CLOUDY    66  53  63 S7        29.98S
CHATHAM        MOSUNNY   70  51  51 VRB7      30.01S
PROVINCETOWN   PTSUNNY   68  52  56 W6        30.00S
NANTUCKET      MOSUNNY   66  48  52 SE9       30.00F
MARTHAS VNYRD  MOSUNNY   67  51  56 S9        29.99F
$$

MAZALL-161800-
CENTRAL AND WESTERN MASSACHUSETTS

CITY           SKY/WX    TMP DP  RH WIND       PRES   REMARKS
WORCESTER      CLOUDY    59  51  75 W10       30.00F
FITCHBURG      CLOUDY    58  53  84 CALM      30.00F
ORANGE         MOSUNNY   60  53  77 CALM      29.98F
SPRINGFIELD    SUNNY     61  54  76 VRB5      29.98F
WESTFIELD      MOSUNNY   62  55  77 S6        29.98F
NORTH ADAMS    CLOUDY    60  53  77 N5        29.99F
PITTSFIELD     CLOUDY    58  51  78 W10       29.99S
$$

RIZALL-161800-
RHODE ISLAND

CITY           SKY/WX    TMP DP  RH WIND       PRES   REMARKS
PROVIDENCE     LGT RAIN  68  49  50 SW9       29.99F
NEWPORT        CLOUDY    67  51  56 S7        29.99F
BLOCK ISLAND   CLOUDY    64  48  55 SE6       30.00F
SMITHFIELD     PTSUNNY   64  48  55 S6        29.98F
WESTERLY       CLOUDY    66  52  60 SE5       29.99F
$$

CTZALL-161800-
CONNECTICUT

CITY           SKY/WX    TMP DP  RH WIND       PRES   REMARKS
BRADLEY INTL   PTSUNNY   63  56  78 CALM      29.98F
HARTFORD       MOSUNNY   63  55  75 SW7       29.99S
BRIDGEPORT     CLOUDY    65  58  78 SW5       29.99F
DANBURY        MOSUNNY   64  54  69 W6        30.00F
GROTON         CLOUDY    62  58  86 CALM      29.99F
NEW HAVEN      PTSUNNY   64  57  78 CALM      29.99F
CHESTER        PTSUNNY   63  57  82 NW3       30.00S
MERIDEN        MOSUNNY   64  55  72 W5        29.99F
WILLIMANTIC    PTSUNNY   62  57  83 CALM      30.00F
OXFORD         PTSUNNY   63  55  77 CALM      30.00F
$$

MEZ002-015-021-024-NHZ003-005-008-011-012-014-VTZ005-008-161800-
NORTHERN NEW ENGLAND

CITY           SKY/WX    TMP DP  RH WIND       PRES   REMARKS
PORTLAND ME    CLOUDY    59  52  77 SW6       29.99F
BANGOR ME      CLOUDY    62  49  62 SW7       29.97F
CONCORD NH     CLOUDY    56  51  84 S7        29.99F
MANCHESTER NH  CLOUDY    56  51  84 S3        29.98S
NASHUA NH      CLOUDY    55  53  93 CALM      30.01F
PORTSMOUTH NH  CLOUDY    59  53  79 S5        29.98F
JAFFREY NH     PTSUNNY   57  52  83 VRB5      29.99F
KEENE NH       PTSUNNY   61  46  59 S6        29.99F
BURLINGTON VT  CLOUDY    57  52  83 S5        29.99S
MT. WASHINGTON FOG       34  34 100 W28         N/A  VSB 0   WCI  20
$$

NYZ052-076-161800-
EASTERN NEW YORK

CITY           SKY/WX    TMP DP  RH WIND       PRES   REMARKS
ALBANY         PTSUNNY   62  54  74 W5        30.00F
NEW YORK CITY  PTSUNNY   65  58  78 NE7       29.99F
$$

ANZALL-161800-
MARINE OBSERVATIONS

STATION/POSITION TIME  TEMP    WIND        PRES    VSBY  WAVE
                       AIR SEA DIR/SP/G                  HT/PER
                 (UTC) (F)     (DEG/KT/KT) (MB)    (MI)  (FT/S)
BOSTON BUOY      1650   59 62   50/  4/  6 1015.8F         2/ 8
BUZZARDS BAY     1600          180/  4/  5 1016.7F
NANTUCKET SOUND  1650   63 68  130/  8/ 10 1015.6F         1
MASS BAY-STELLWA 1604   60 60  280/  4/  4   N/A    1 7/8  1/ 8
ISLE OF SHOALS   1700   58      CALM  /  2 1014.9F
S OF BLOCK IS    1608      67                N/A           2/13
$$

......................KEY.........................
  SKY/WX - SKY CONDITION/PRESENT WEATHER
  TMP    - TEMPERATURE IN FAHRENHEIT
  DWPT   - DEWPOINT IN FAHRENHEIT
  RH     - RELATIVE HUMIDITY IN PERCENT
  WIND   - DIRECTION AND SPEED IN MPH
  PRES   - MEAN SEA LEVEL PRESSURE IN INCHES OF HG
  WCI    - WIND CHILL INDEX
  VSB    - VISIBILITY IN MILES
  HX     - HEAT INDEX
  TC     - TEMPERATURE IN CELSIUS
  VRB    - VARIABLE WIND DIRECTION
  N/A    - NOT AVAILABLE



USA.gov is the U.S. government's official web portal to all federal, state and local government web resources and services.